Location: Eurasberg
(48.3353°N, 11.0839°E)
Time: 11:04:33
(UTC+00:00)

Timation 2 Rocket - Pass Details

Date: 18 January 2026
Orbit: 906 x 1072 km, 70.0° (Epoch: 11 February)

Event Time Altitude Azimuth Distance (km) Brightness Sun altitude
Rises 04:42:18 0° 208° (SSW) 3,781 6.9 -22.3°
Reaches altitude 10° 04:44:55 10° 209° (SSW) 2,811 6.2 -21.9°
Maximum altitude 04:51:31 87° 297° (WNW) 1,002 4.0 -20.8°
Drops below altitude 10° 04:57:51 10° 29° (NNE) 2,709 6.6 -19.8°
Sets 05:00:21 0° 30° (NNE) 3,636 7.3 -19.4°
